LNI889 WAPP-WIII

Flight info

Callsign LNI889
Flight time N/A
Altitude 36000
Route SULIS T6 MKS/N0452F380 T6 KURUS
Aircraft B739/M-SDE2E3FGHIRWXY/LB1

Departure

Time 2026-04-30 10:21
Airport Pattimura International Airport (WAPP)

Arrival

Time N/A
Airport Soekarno-Hatta International Airport (WIII)
Time Latitude Longitude Altitude Speed Heading
2026-04-30 09:53 -3.70631 128.08853 93 ft 0 kts 360°
2026-04-30 10:10 -3.70632 128.08853 93 ft 0 kts
2026-04-30 10:11 -3.70633 128.08853 93 ft 0 kts
2026-04-30 10:11 -3.70641 128.08853 93 ft 2 kts 360°
2026-04-30 10:11 -3.70656 128.08853 92 ft 2 kts
2026-04-30 10:11 -3.70671 128.08853 91 ft 2 kts 360°
2026-04-30 10:12 -3.70686 128.08852 90 ft 2 kts 25°
2026-04-30 10:12 -3.70697 128.08841 90 ft 2 kts 69°
2026-04-30 10:12 -3.70699 128.08833 90 ft 1 kts 92°
2026-04-30 10:12 -3.70698 128.08827 90 ft 0 kts 91°
2026-04-30 10:15 -3.70698 128.08832 90 ft 2 kts 91°
2026-04-30 10:16 -3.70698 128.08868 89 ft 8 kts 86°
2026-04-30 10:16 -3.70697 128.08943 88 ft 13 kts 89°
2026-04-30 10:16 -3.70699 128.09049 85 ft 16 kts 102°
2026-04-30 10:17 -3.70781 128.09212 75 ft 4 kts 46°
2026-04-30 10:17 -3.70779 128.09213 75 ft 0 kts 46°
2026-04-30 10:17 -3.70754 128.09241 75 ft 12 kts 46°
2026-04-30 10:18 -3.70667 128.09328 75 ft 19 kts 46°
2026-04-30 10:18 -3.70584 128.09410 75 ft 15 kts 44°
2026-04-30 10:18 -3.70507 128.09483 73 ft 15 kts 43°
2026-04-30 10:19 -3.70363 128.09631 67 ft 14 kts 44°
2026-04-30 10:19 -3.70281 128.09695 63 ft 14 kts 25°
2026-04-30 10:19 -3.70239 128.09750 60 ft 9 kts 139°
2026-04-30 10:19 -3.70265 128.09732 61 ft 8 kts 237°
2026-04-30 10:20 -3.70279 128.09715 62 ft 0 kts 228°
2026-04-30 10:20 -3.70276 128.09718 62 ft 1 kts 227°
2026-04-30 10:20 -3.70449 128.09544 70 ft 74 kts 225°
2026-04-30 10:21 -3.70990 128.09006 76 ft 145 kts 225°
2026-04-30 10:21 -3.71807 128.08182 398 ft 175 kts 225°
2026-04-30 10:21 -3.72672 128.07312 1178 ft 180 kts 225°
2026-04-30 10:21 -3.73599 128.06396 1733 ft 199 kts 225°
2026-04-30 10:22 -3.74632 128.05364 2111 ft 224 kts 225°
2026-04-30 10:22 -3.75790 128.04207 2662 ft 244 kts 225°
2026-04-30 10:22 -3.77030 128.02968 3275 ft 262 kts 225°
2026-04-30 10:22 -3.78326 128.01671 4104 ft 270 kts 225°
2026-04-30 10:23 -3.79657 128.00339 5008 ft 276 kts 225°
2026-04-30 10:23 -3.81029 127.98962 5932 ft 280 kts 225°
2026-04-30 10:23 -3.82408 127.97575 6532 ft 293 kts 225°
2026-04-30 10:23 -3.83806 127.96045 7392 ft 297 kts 235°
2026-04-30 10:24 -3.84532 127.94182 8382 ft 295 kts 265°
2026-04-30 10:24 -3.84249 127.92162 9267 ft 296 kts 289°
2026-04-30 10:24 -3.83614 127.90223 10091 ft 299 kts 283°
2026-04-30 10:24 -3.83310 127.88123 10667 ft 312 kts 274°
2026-04-30 10:25 -3.83158 127.85858 10858 ft 339 kts 273°
2026-04-30 10:25 -3.83004 127.83465 11397 ft 352 kts 273°
2026-04-30 10:25 -3.82858 127.81131 12084 ft 358 kts 273°
2026-04-30 10:25 -3.82736 127.79005 12743 ft 363 kts 273°
2026-04-30 10:26 -3.82597 127.76480 13635 ft 364 kts 273°
2026-04-30 10:26 -3.82458 127.73953 14572 ft 364 kts 273°
2026-04-30 10:26 -3.82322 127.71439 15377 ft 366 kts 273°
2026-04-30 10:26 -3.82185 127.68889 16132 ft 369 kts 273°
2026-04-30 10:27 -3.82048 127.66317 16850 ft 373 kts 273°
2026-04-30 10:27 -3.81910 127.63718 17544 ft 377 kts 273°
2026-04-30 10:27 -3.81771 127.61094 18217 ft 380 kts 273°
2026-04-30 10:27 -3.81632 127.58487 18860 ft 384 kts 273°
2026-04-30 10:28 -3.81488 127.55768 19507 ft 388 kts 273°
2026-04-30 10:28 -3.81345 127.53065 20127 ft 391 kts 273°
2026-04-30 10:28 -3.81201 127.50352 20726 ft 395 kts 273°
2026-04-30 10:28 -3.81056 127.47614 21309 ft 399 kts 273°
2026-04-30 10:29 -3.80909 127.44837 21878 ft 402 kts 273°
2026-04-30 10:29 -3.80759 127.42020 22436 ft 405 kts 273°
2026-04-30 10:29 -3.80608 127.39183 22977 ft 409 kts 273°
2026-04-30 10:29 -3.80458 127.36352 23499 ft 412 kts 273°
2026-04-30 10:30 -3.80304 127.33472 24012 ft 415 kts 273°
2026-04-30 10:30 -3.80151 127.30589 24508 ft 418 kts 273°
2026-04-30 10:30 -3.79996 127.27666 24993 ft 422 kts 273°
2026-04-30 10:30 -3.79840 127.24735 25463 ft 425 kts 273°
2026-04-30 10:31 -3.79680 127.21748 25926 ft 428 kts 273°
2026-04-30 10:31 -3.79522 127.18777 26371 ft 430 kts 273°
2026-04-30 10:31 -3.79363 127.15795 26802 ft 433 kts 273°
2026-04-30 10:31 -3.79201 127.12768 27226 ft 436 kts 273°
2026-04-30 10:32 -3.79039 127.09737 27637 ft 439 kts 273°
2026-04-30 10:32 -3.78875 127.06683 28037 ft 442 kts 273°
2026-04-30 10:32 -3.78711 127.03622 28397 ft 445 kts 273°
2026-04-30 10:32 -3.78546 127.00539 28819 ft 447 kts 273°
2026-04-30 10:33 -3.78380 126.97434 29207 ft 449 kts 273°
2026-04-30 10:33 -3.78211 126.94280 29578 ft 451 kts 273°
2026-04-30 10:33 -3.78041 126.91121 29933 ft 453 kts 273°
2026-04-30 10:33 -3.77872 126.87979 30359 ft 453 kts 273°
2026-04-30 10:34 -3.77704 126.84857 30916 ft 450 kts 273°
2026-04-30 10:34 -3.77536 126.81729 31355 ft 449 kts 273°
2026-04-30 10:34 -3.77368 126.78612 31783 ft 448 kts 273°
2026-04-30 10:34 -3.77201 126.75506 32193 ft 447 kts 273°
2026-04-30 10:35 -3.77035 126.72433 32579 ft 446 kts 273°
2026-04-30 10:35 -3.76867 126.69317 32956 ft 445 kts 273°
2026-04-30 10:35 -3.76700 126.66219 33291 ft 445 kts 273°
2026-04-30 10:35 -3.76535 126.63165 33651 ft 444 kts 273°
2026-04-30 10:36 -3.76368 126.60081 34005 ft 443 kts 273°
2026-04-30 10:36 -3.76202 126.57009 34327 ft 442 kts 273°
2026-04-30 10:36 -3.76105 126.53960 34627 ft 441 kts 269°
2026-04-30 10:36 -3.76284 126.50897 34918 ft 441 kts 265°
2026-04-30 10:37 -3.76572 126.47832 35208 ft 440 kts 265°
2026-04-30 10:37 -3.76827 126.44787 35475 ft 440 kts 265°
2026-04-30 10:37 -3.77054 126.41778 35732 ft 439 kts 265°
2026-04-30 10:37 -3.77290 126.38701 35971 ft 439 kts 265°
2026-04-30 10:38 -3.77767 126.32578 36000 ft 442 kts 265°
2026-04-30 10:38 -3.78247 126.26501 36000 ft 438 kts 265°
2026-04-30 10:39 -3.78727 126.20418 36000 ft 438 kts 265°
2026-04-30 10:39 -3.79205 126.14348 36000 ft 439 kts 265°
2026-04-30 10:40 -3.79682 126.08290 36000 ft 439 kts 265°
2026-04-30 10:40 -3.80162 126.02178 36000 ft 439 kts 265°
2026-04-30 10:41 -3.80637 125.96117 35999 ft 438 kts 265°
2026-04-30 10:41 -3.81114 125.90028 35999 ft 438 kts 265°
2026-04-30 10:42 -3.81589 125.83969 35999 ft 438 kts 265°
2026-04-30 10:42 -3.81774 125.81919 35999 ft 438 kts 263°
2026-04-30 10:44 -3.86312 125.59472 35999 ft 438 kts 258°
2026-04-30 10:44 -3.87499 125.53503 36000 ft 438 kts 258°
2026-04-30 10:45 -3.88680 125.47546 36000 ft 438 kts 258°
2026-04-30 10:45 -3.89867 125.41547 36000 ft 438 kts 258°
2026-04-30 10:46 -3.91049 125.35568 35999 ft 438 kts 258°
2026-04-30 10:46 -3.92224 125.29621 36000 ft 438 kts 259°
2026-04-30 10:47 -3.93405 125.23640 36000 ft 438 kts 259°
2026-04-30 10:47 -3.94590 125.17632 35999 ft 438 kts 259°
2026-04-30 10:48 -3.95765 125.11678 35999 ft 438 kts 259°
2026-04-30 10:48 -3.96943 125.05699 36000 ft 438 kts 259°
2026-04-30 10:49 -3.98119 124.99731 36000 ft 438 kts 259°
2026-04-30 10:49 -3.99295 124.93757 35999 ft 438 kts 259°
2026-04-30 10:50 -4.00082 124.89760 35999 ft 438 kts 259°
2026-04-30 10:51 -4.02867 124.75608 35999 ft 438 kts 259°
2026-04-30 10:51 -4.04038 124.69652 35999 ft 438 kts 259°
2026-04-30 10:52 -4.05217 124.63649 35999 ft 438 kts 259°
2026-04-30 10:52 -4.06387 124.57694 35999 ft 437 kts 259°
2026-04-30 10:53 -4.07561 124.51713 36000 ft 437 kts 259°
2026-04-30 10:53 -4.08739 124.45716 35999 ft 437 kts 259°
2026-04-30 10:54 -4.09909 124.39752 35999 ft 437 kts 259°
2026-04-30 10:54 -4.11080 124.33782 35999 ft 437 kts 259°
2026-04-30 10:55 -4.12248 124.27829 36000 ft 437 kts 259°
2026-04-30 10:55 -4.13417 124.21861 35999 ft 437 kts 259°
2026-04-30 10:56 -4.14593 124.15859 36000 ft 437 kts 259°
2026-04-30 10:56 -4.15761 124.09896 36000 ft 437 kts 259°
2026-04-30 10:57 -4.16926 124.03943 36000 ft 437 kts 259°
2026-04-30 10:57 -4.18089 123.98000 36000 ft 437 kts 259°
2026-04-30 10:58 -4.19256 123.92033 36000 ft 437 kts 259°
2026-04-30 10:58 -4.20428 123.86039 36000 ft 437 kts 259°
2026-04-30 10:59 -4.21590 123.80095 36000 ft 437 kts 259°
2026-04-30 10:59 -4.22760 123.74108 36000 ft 437 kts 259°
2026-04-30 11:00 -4.23926 123.68134 35999 ft 437 kts 259°
2026-04-30 11:00 -4.25086 123.62195 36000 ft 437 kts 259°
2026-04-30 11:01 -4.26252 123.56216 36000 ft 437 kts 259°
2026-04-30 11:01 -4.27418 123.50236 36000 ft 437 kts 259°
2026-04-30 11:02 -4.28587 123.44241 35999 ft 437 kts 259°
2026-04-30 11:02 -4.29558 123.39259 35999 ft 437 kts 259°
2026-04-30 11:03 -4.30907 123.32334 36000 ft 437 kts 259°
2026-04-30 11:04 -4.32649 123.23382 35999 ft 437 kts 259°
2026-04-30 11:04 -4.33616 123.18411 35999 ft 437 kts 259°
2026-04-30 11:05 -4.34971 123.11446 36000 ft 437 kts 259°
2026-04-30 11:05 -4.36127 123.05498 36000 ft 437 kts 259°
2026-04-30 11:06 -4.37289 122.99517 36000 ft 437 kts 259°
2026-04-30 11:06 -4.38442 122.93579 35999 ft 437 kts 259°
2026-04-30 11:07 -4.39596 122.87633 36000 ft 437 kts 259°
2026-04-30 11:07 -4.40564 122.82647 36000 ft 437 kts 259°
2026-04-30 11:08 -4.41720 122.76689 36000 ft 437 kts 259°
2026-04-30 11:08 -4.42879 122.70712 35999 ft 437 kts 259°
2026-04-30 11:09 -4.44223 122.63776 35999 ft 437 kts 259°
2026-04-30 11:09 -4.45381 122.57797 36000 ft 437 kts 259°
2026-04-30 11:10 -4.46531 122.51859 35999 ft 436 kts 259°
2026-04-30 11:10 -4.47684 122.45898 36000 ft 436 kts 259°
2026-04-30 11:11 -4.48834 122.39957 35999 ft 436 kts 259°
2026-04-30 11:11 -4.49989 122.33986 35999 ft 436 kts 259°
2026-04-30 11:12 -4.51145 122.28003 36000 ft 436 kts 259°
2026-04-30 11:12 -4.52296 122.22043 35999 ft 436 kts 259°